Location: Chandolas
(44.4033°N, 4.2533°E)
Time: 08:05:06
(UTC+00:00)

NOSS 3-3 (C) - Pass Details

Date: 15 November 2019
Orbit: 844 x 1368 km, 63.4° (Epoch: 05 December)

Event Time Altitude Azimuth Distance (km) Brightness Sun altitude
Exits shadow 04:28:37 13° 205° (SSW) 2,296 5.7 -23.1°
Maximum altitude 04:33:47 72° 123° (ESE) 984 4.1 -22.2°
Drops below altitude 10° 04:40:18 10° 40° (NE) 2,824 6.9 -21.1°
Sets 04:43:05 0° 39° (NE) 3,860 7.6 -20.6°
